This demonstration page uses our WeatherBlox Daily Observations layout. Learn more.

Left ArrowRight Arrow

36.17497, -115.13722

Hourly Observations for July 10, 2017

Temp ( °F °C ) Dew Point ( °F °C ) Humidity (%) Winds ( mph kmh ) Pressure ( in mb ) Visibility ( mi km ) Precip ( " mm )
12:53 am 00:53 Clear 92 33.3 53 11.7 27 27 NNW 20 31 29.85 1011 10 16 N/A
1:53 am 01:53 Clear 92 33.3 53 11.7 27 27 NNW 15 24 29.84 1011 10 16 N/A
2:53 am 02:53 Clear 90 32.2 53 11.7 28 28 N 12 19 29.84 1011 10 16 N/A
3:53 am 03:53 Clear 89 31.7 53 11.7 29 29 NNW 10 17 29.85 1011 10 16 N/A
4:53 am 04:53 Clear 87 30.6 54 12.2 32 32 NNE 8 13 29.86 1011 10 16 N/A
5:53 am 05:53 Sunny 87 30.6 54 12.2 32 32 WNW 5 7 29.87 1012 10 16 N/A
6:53 am 06:53 Sunny 87 30.6 54 12.2 32 32 N N/A 29.88 1012 10 16 N/A
7:53 am 07:53 Sunny 89 31.7 54 12.2 30 30 N N/A 29.88 1012 10 16 N/A
8:53 am 08:53 Sunny 89 31.7 52 11.1 28 28 SSE 3 6 29.89 1012 10 16 N/A
9:53 am 09:53 Sunny 95 35 53 11.7 24 24 ESE 8 13 29.88 1012 10 16 N/A
10:53 am 10:53 Sunny 96 35.6 52 11.1 23 23 SE 9 15 29.88 1012 10 16 N/A
11:53 am 11:53 Sunny 98 36.7 52 11.1 21 21 SE 10 17 29.86 1011 10 16 N/A
12:53 pm 12:53 Sunny 102 38.9 50 10 17 17 SSE 10 17 29.83 1010 10 16 N/A
1:53 pm 13:53 Sunny 103 39.4 50 10 17 17 SE 12 19 29.79 1009 10 16 N/A
2:41 pm 14:41 Partly Cloudy with Heavy Rain 91 32.8 60 15.6 35 35 E 12 19 29.71 1006 2 3 0.04 1.02
2:50 pm 14:50 Mostly Cloudy with Rain 91 33 63 17 38 38 VRB 6 9 29.68 1005 3 5 0.11 2.79
2:53 pm 14:53 Mostly Cloudy with Rain 91 32.8 62 16.7 38 38 NE 7 11 29.80 1009 4 6 0.11 2.79
3:21 pm 15:21 Mostly Cloudy 92 33.3 61 16.1 36 36 SSW 10 17 29.65 1004 10 16 N/A
3:53 pm 15:53 Partly Cloudy 95 35 57 13.9 28 28 NW 9 15 29.77 1008 10 16 N/A
4:53 pm 16:53 Sunny 96 35.6 56 13.3 26 26 VRB 6 9 29.77 1008 10 16 N/A
5:53 pm 17:53 Sunny 96 35.6 58 14.4 28 28 SSE 7 11 29.74 1007 10 16 N/A
6:53 pm 18:53 Sunny 98 36.7 52 11.1 21 21 ENE 5 7 29.74 1007 10 16 N/A
7:53 pm 19:53 Sunny 93 33.9 58 14.4 31 31 SE 5 7 29.75 1007 10 16 N/A
8:53 pm 20:53 Clear 92 33.3 56 13.3 30 30 SSE 6 9 29.76 1008 10 16 N/A
9:40 pm 21:40 Clear 92 33.3 52 11.1 26 26 NNW 28 44 29.65 1004 10 16 N/A
9:53 pm 21:53 Clear 91 32.8 53 11.7 27 27 NNW 24 39 29.79 1009 10 16 N/A
10:53 pm 22:53 Clear 90 32.2 52 11.1 27 27 NNW 20 31 29.81 1010 10 16 N/A
11:53 pm 23:53 Clear 89 31.7 54 12.2 30 30 NNW 17 28 29.81 1009 10 16 N/A

Powered by AerisWeather